DW9151 Weather Reports


Display with metric or nautical units.
time (UTC)temp
F
wind
direction
speed
MPH
gust
MPH
rain 1hr
in
rain 24hr
in
rain mn
in
humidity
%
barometer
mb
20260905214105 58 67 2.0 5.0 0.00 0.00 0.00 84 1019.8
20260905213105 57 56 4.0 8.0 0.00 0.00 0.00 85 1019.8
20260905212605 57 51 3.0 6.0 0.00 0.00 0.00 85 1019.8
20260905212105 57 42 4.0 6.0 0.00 0.00 0.00 85 1019.7
20260905211605 58 0 3.0 3.0 0.00 0.00 0.00 85 1019.7
20260905210605 58 345 2.0 3.0 0.00 0.00 0.00 85 1019.6
20260905210105 59 355 1.0 3.0 0.00 0.00 0.00 84 1019.6
20260905205605 59 343 2.0 3.0 0.00 0.00 0.00 85 1019.6
20260905205105 59 343 0.0 3.0 0.00 0.00 0.00 85 1019.6
20260905204605 60 348 1.0 3.0 0.00 0.00 0.00 84 1019.6
20260905204105 60 343 0.0 3.0 0.00 0.00 0.00 84 1019.5
20260905203605 60 351 1.0 2.0 0.00 0.00 0.00 84 1019.5
20260905203105 60 353 1.0 3.0 0.00 0.00 0.00 85 1019.5
20260905202605 60 344 3.0 5.0 0.00 0.00 0.00 85 1019.5
20260905202105 60 343 3.0 5.0 0.00 0.00 0.00 85 1019.4
20260905201605 61 352 2.0 3.0 0.00 0.00 0.00 85 1019.4
20260905201105 62 350 2.0 3.0 0.00 0.00 0.00 85 1019.4
20260905200605 62 358 3.0 7.0 0.00 0.00 0.00 82 1019.3
20260905200105 62 0 7.0 12.0 0.00 0.00 0.00 82 1019.2
20260905195605 61 0 10.0 13.0 0.00 0.00 0.00 82 1019.2
20260905195105 61 0 11.0 15.0 0.00 0.00 0.00 82 1019.1
20260905194605 62 358 10.0 13.0 0.00 0.00 0.00 81 1019.1
20260905194105 62 354 10.0 12.0 0.00 0.00 0.00 81 1019.1
20260905193605 63 0 10.0 13.0 0.00 0.00 0.00 79 1019.0
20260905193105 63 354 11.0 14.0 0.00 0.00 0.00 79 1019.0
20260905192605 63 0 9.0 12.0 0.00 0.00 0.00 79 1018.9
20260905192105 62 358 6.0 10.0 0.00 0.00 0.00 79 1018.9
20260905191604 62 0 5.0 7.0 0.00 0.00 0.00 79 1018.8
20260905191105 63 0 2.0 5.0 0.00 0.00 0.00 80 1018.8
20260905190605 63 0 3.0 6.0 0.00 0.00 0.00 79 1018.8
20260905190105 63 0 5.0 6.0 0.00 0.00 0.00 79 1018.7
20260905185604 63 356 5.0 8.0 0.00 0.00 0.00 78 1018.7
20260905185105 63 353 7.0 10.0 0.00 0.00 0.00 79 1018.7
20260905184607 63 0 7.0 10.0 0.00 0.00 0.00 79 1018.6
20260905184105 62 356 9.0 12.0 0.00 0.00 0.00 81 1018.5
20260905183604 62 356 6.0 10.0 0.00 0.00 0.00 81 1018.4
20260905183104 62 0 3.0 8.0 0.00 0.00 0.00 83 1018.3
20260905182605 62 342 3.0 6.0 0.00 0.00 0.00 83 1018.4
20260905181604 62 358 3.0 6.0 0.00 0.00 0.00 83 1018.3
20260905181106 62 0 3.0 7.0 0.00 0.00 0.00 84 1018.3
20260905180605 62 356 4.0 6.0 0.00 0.00 0.00 85 1018.3
20260905180105 62 336 4.0 6.0 0.00 0.00 0.00 85 1018.4
20260905175105 62 344 3.0 7.0 0.00 0.00 0.00 85 1018.1
20260905174605 62 358 3.0 6.0 0.00 0.00 0.00 85 1018.0
20260905174105 62 343 5.0 7.0 0.00 0.00 0.00 85 1018.0
20260905173605 63 358 4.0 7.0 0.00 0.00 0.00 84 1017.9
20260905173105 63 341 3.0 8.0 0.00 0.00 0.00 84 1017.9
20260905172604 63 341 2.0 6.0 0.00 0.00 0.00 83 1017.9
20260905172104 63 269 1.0 3.0 0.00 0.00 0.00 83 1018.0
20260905171605 63 268 1.0 3.0 0.00 0.00 0.00 83 1017.9
20260905171105 63 261 1.0 3.0 0.00 0.00 0.00 83 1018.0
20260905170604 63 234 2.0 3.0 0.00 0.00 0.00 84 1017.9
20260905170105 64 245 1.0 3.0 0.00 0.00 0.00 83 1017.9
20260905165605 64 229 1.0 3.0 0.00 0.00 0.00 82 1017.8
20260905165105 64 249 1.0 6.0 0.00 0.00 0.00 82 1017.8
20260905163604 64 248 1.0 3.0 0.00 0.00 0.00 83 1017.7
20260905163105 64 212 1.0 5.0 0.00 0.00 0.00 83 1017.7
20260905162605 64 339 2.0 3.0 0.00 0.00 0.00 83 1017.6
20260905162105 65 225 1.0 3.0 0.00 0.00 0.00 82 1017.6
20260905161606 65 219 2.0 6.0 0.00 0.00 0.00 82 1017.6
20260905161105 65 277 2.0 5.0 0.00 0.00 0.00 82 1017.6
20260905160604 65 269 2.0 5.0 0.00 0.00 0.00 82 1017.5
20260905160105 65 265 2.0 5.0 0.00 0.00 0.00 82 1017.6
20260905155605 65 256 2.0 5.0 0.00 0.00 0.00 82 1017.5
20260905154604 65 236 1.0 3.0 0.00 0.00 0.00 81 1017.4
20260905154104 65 218 2.0 3.0 0.00 0.00 0.00 81 1017.5
20260905153604 65 236 1.0 3.0 0.00 0.00 0.00 81 1017.4
20260905153104 65 224 1.0 3.0 0.00 0.00 0.00 82 1017.4
20260905152605 65 212 1.0 6.0 0.00 0.00 0.00 82 1017.3
20260905152105 65 226 2.0 3.0 0.00 0.00 0.00 83 1017.3
20260905151604 64 221 2.0 3.0 0.00 0.00 0.00 84 1017.3
20260905151105 64 166 5.0 7.0 0.00 0.00 0.00 84 1017.4
20260905150605 63 187 3.0 6.0 0.00 0.00 0.00 85 1017.3
20260905150104 63 158 5.0 8.0 0.00 0.00 0.00 85 1017.2
20260905145606 64 163 6.0 9.0 0.00 0.00 0.00 84 1017.2
20260905145104 65 148 4.0 6.0 0.00 0.00 0.00 83 1017.1
20260905144604 65 149 5.0 7.0 0.00 0.00 0.00 84 1017.1
20260905144104 64 148 6.0 8.0 0.00 0.00 0.00 84 1017.1
20260905143605 64 172 5.0 7.0 0.00 0.00 0.00 84 1017.1
20260905143105 65 159 6.0 8.0 0.00 0.00 0.00 82 1017.0
20260905142605 66 165 3.0 6.0 0.00 0.00 0.00 83 1017.0
20260905142105 65 165 4.0 7.0 0.00 0.00 0.00 83 1017.1
20260905141605 65 170 3.0 6.0 0.00 0.00 0.00 81 1017.2
20260905141104 66 168 2.0 5.0 0.00 0.00 0.00 83 1017.2
20260905140605 66 172 4.0 7.0 0.00 0.00 0.00 82 1017.2
20260905135104 65 175 3.0 8.0 0.00 0.00 0.00 81 1017.1
20260905134605 66 153 4.0 8.0 0.00 0.00 0.00 81 1017.2
20260905133605 67 154 2.0 8.0 0.00 0.00 0.00 80 1017.1
20260905133105 67 157 3.0 6.0 0.00 0.00 0.00 78 1017.2
20260905132607 66 244 5.0 9.0 0.00 0.00 0.00 82 1017.2
20260905132104 65 157 5.0 9.0 0.00 0.00 0.00 82 1017.2
20260905131604 66 157 5.0 7.0 0.00 0.00 0.00 82 1017.2
20260905131104 67 136 5.0 8.0 0.00 0.00 0.00 79 1017.2
20260905130605 68 172 3.0 6.0 0.00 0.00 0.00 79 1017.3
20260905130104 67 173 2.0 6.0 0.00 0.00 0.00 80 1017.3
20260905125604 67 186 1.0 7.0 0.00 0.00 0.00 80 1017.3
20260905124605 67 161 3.0 6.0 0.00 0.00 0.00 81 1017.2
20260905124104 68 162 4.0 6.0 0.00 0.00 0.00 79 1017.2
20260905123604 68 162 4.0 7.0 0.00 0.00 0.00 79 1017.3
20260905123105 68 157 1.0 6.0 0.00 0.00 0.00 79 1017.3
20260905122604 68 157 5.0 6.0 0.00 0.00 0.00 78 1017.4
20260905122104 69 177 2.0 3.0 0.00 0.00 0.00 76 1017.4
20260905121104 70 170 2.0 3.0 0.00 0.00 0.00 74 1017.4
20260905120604 70 168 1.0 3.0 0.00 0.00 0.00 76 1017.4
20260905120105 69 167 1.0 5.0 0.00 0.00 0.00 77 1017.4
20260905115604 69 166 3.0 5.0 0.00 0.00 0.00 76 1017.4
20260905115105 69 167 1.0 6.0 0.00 0.00 0.00 77 1017.5
20260905114604 69 163 1.0 3.0 0.00 0.00 0.00 76 1017.5
20260905114104 70 160 2.0 3.0 0.00 0.00 0.00 75 1017.4
20260905112604 70 152 2.0 5.0 0.00 0.00 0.00 76 1017.3
20260905112104 69 155 1.0 3.0 0.00 0.00 0.00 78 1017.2
20260905111104 68 150 1.0 3.0 0.00 0.00 0.00 78 1017.2
20260905110604 68 144 2.0 3.0 0.00 0.00 0.00 77 1017.2
20260905105604 69 146 2.0 3.0 0.00 0.00 0.00 77 1017.2
20260905105104 70 146 2.0 3.0 0.00 0.00 0.00 75 1017.3
20260905104605 70 146 1.0 2.0 0.00 0.00 0.00 75 1017.3
20260905104104 71 145 1.0 3.0 0.00 0.00 0.00 75 1017.2
20260905103604 71 139 1.0 3.0 0.00 0.00 0.00 74 1017.2
20260905102606 72 142 0.0 3.0 0.00 0.00 0.00 73 1017.2
20260905101605 72 141 1.0 2.0 0.00 0.00 0.00 72 1017.3
20260905101106 71 141 1.0 3.0 0.00 0.00 0.00 72 1017.2
20260905100606 71 141 2.0 5.0 0.00 0.00 0.00 74 1017.3
20260905100106 70 138 3.0 3.0 0.00 0.00 0.00 76 1017.3
20260905095606 70 38 1.0 3.0 0.00 0.00 0.00 72 1017.3
20260905095107 68 1 2.0 5.0 0.00 0.00 0.00 66 1017.3
20260905094606 68 356 1.0 3.0 0.00 0.00 0.00 73 1017.4
20260905094106 68 356 1.0 3.0 0.00 0.00 0.00 74 1017.3
20260905093106 69 351 2.0 5.0 0.00 0.00 0.00 72 1017.3
20260905092106 68 357 0.0 3.0 0.00 0.00 0.00 72 1017.2
20260905091606 68 358 2.0 6.0 0.00 0.00 0.00 70 1017.2
20260905090606 66 158 2.0 3.0 0.00 0.00 0.00 74 1017.2
20260905090106 66 157 1.0 3.0 0.00 0.00 0.00 73 1017.2
20260905085605 66 155 1.0 3.0 0.00 0.00 0.00 73 1017.2
20260905085107 67 139 2.0 6.0 0.00 0.00 0.00 71 1017.1
20260905084605 67 124 2.0 3.0 0.00 0.00 0.00 73 1017.0
20260905084106 67 122 2.0 5.0 0.00 0.00 0.00 74 1016.9
20260905083106 68 42 2.0 3.0 0.00 0.00 0.00 73 1016.9
20260905082106 66 0 1.0 6.0 0.00 0.00 0.00 70 1017.0
20260905081606 66 354 1.0 7.0 0.00 0.00 0.00 66 1016.9
20260905081106 65 359 2.0 5.0 0.00 0.00 0.00 72 1016.8
20260905080606 66 348 1.0 6.0 0.00 0.00 0.00 71 1016.7
20260905080105 66 0 5.0 8.0 0.00 0.00 0.00 69 1016.7
20260905075605 67 31 2.0 5.0 0.00 0.00 0.00 63 1016.6
20260905075106 67 3 1.0 6.0 0.00 0.00 0.00 68 1016.6
20260905074606 68 0 3.0 5.0 0.00 0.00 0.00 62 1016.6
20260905074106 68 352 1.0 3.0 0.00 0.00 0.00 61 1016.5
20260905073605 66 358 1.0 3.0 0.00 0.00 0.00 58 1016.5
20260905073106 66 358 6.0 9.0 0.00 0.00 0.00 57 1016.5
20260905072606 66 359 1.0 6.0 0.00 0.00 0.00 62 1016.5
20260905072106 66 348 1.0 5.0 0.00 0.00 0.00 58 1016.5
20260905071606 67 354 3.0 5.0 0.00 0.00 0.00 60 1016.4
20260905071105 67 350 2.0 3.0 0.00 0.00 0.00 56 1016.4
20260905070606 66 355 5.0 10.0 0.00 0.00 0.00 56 1016.3
20260905070106 66 350 2.0 5.0 0.00 0.00 0.00 62 1016.2
20260905065606 65 327 4.0 8.0 0.00 0.00 0.00 64 1016.2
20260905065106 65 335 5.0 7.0 0.00 0.00 0.00 64 1016.2
20260905062606 62 343 4.0 12.0 0.00 0.00 0.00 73 1016.2
20260905061606 61 353 4.0 7.0 0.00 0.00 0.00 77 1016.2
20260905060606 60 359 3.0 12.0 0.00 0.00 0.00 76 1016.2
20260905060106 61 354 7.0 13.0 0.00 0.00 0.00 74 1016.1
20260905054605 62 314 3.0 7.0 0.00 0.00 0.00 71 1015.8
20260905054106 62 322 2.0 7.0 0.00 0.00 0.00 72 1015.9
20260905053605 61 298 3.0 7.0 0.00 0.00 0.00 73 1015.9
20260905053106 61 223 3.0 8.0 0.00 0.00 0.00 74 1015.9
20260905052605 61 334 3.0 7.0 0.00 0.00 0.00 76 1016.0
20260905052106 61 354 6.0 12.0 0.00 0.00 0.00 74 1016.1
20260905050605 61 290 6.0 13.0 0.00 0.00 0.00 73 1015.6
20260905050106 60 287 5.0 8.0 0.00 0.00 0.00 73 1015.5
20260905045605 60 254 5.0 8.0 0.00 0.00 0.00 74 1015.4
20260905045105 60 215 5.0 9.0 0.00 0.00 0.00 75 1015.5
20260905044605 60 351 4.0 7.0 0.00 0.00 0.00 76 1015.5
20260905044106 60 330 2.0 7.0 0.00 0.00 0.00 76 1015.6
20260905043606 59 199 3.0 8.0 0.00 0.00 0.00 76 1015.6
20260905043105 59 10 2.0 10.0 0.00 0.00 0.00 77 1015.8
20260905042605 59 95 4.0 7.0 0.00 0.00 0.00 78 1015.8
20260905042106 59 3 5.0 9.0 0.00 0.00 0.00 78 1015.8
20260905041606 59 0 3.0 10.0 0.00 0.00 0.00 79 1015.9
20260905041106 59 358 3.0 8.0 0.00 0.00 0.00 80 1015.9
20260905040105 59 354 3.0 9.0 0.00 0.00 0.00 81 1016.0
20260905035606 59 354 4.0 8.0 0.00 0.00 0.00 81 1016.0
20260905035106 58 350 5.0 8.0 0.00 0.00 0.00 81 1016.0
20260905034605 58 337 5.0 8.0 0.00 0.00 0.00 82 1016.1
20260905034105 58 345 2.0 5.0 0.00 0.00 0.00 82 1016.1
20260905033105 58 316 5.0 7.0 0.00 0.00 0.00 83 1016.0
20260905032606 58 306 4.0 10.0 0.00 0.00 0.00 83 1016.0
20260905032105 58 266 5.0 8.0 0.00 0.00 0.00 83 1016.0
20260905031605 58 168 5.0 9.0 0.00 0.00 0.00 83 1016.0
20260905031105 58 114 6.0 12.0 0.00 0.00 0.00 83 1016.1
20260905030606 58 330 5.0 9.0 0.00 0.00 0.00 84 1015.9
20260905030106 58 332 5.0 12.0 0.00 0.00 0.00 84 1016.0
20260905025606 58 220 6.0 12.0 0.00 0.00 0.00 84 1016.1
20260905025105 58 82 4.0 10.0 0.00 0.00 0.00 84 1016.0
20260905024605 58 76 5.0 9.0 0.00 0.00 0.00 84 1016.1
20260905024105 58 244 5.0 13.0 0.00 0.00 0.00 84 1016.1
20260905023106 58 336 5.0 10.0 0.00 0.00 0.00 84 1016.1
20260905022605 58 282 5.0 12.0 0.00 0.00 0.00 84 1016.1
20260905022106 58 242 5.0 9.0 0.00 0.00 0.00 83 1016.2
20260905021605 58 267 4.0 7.0 0.00 0.00 0.00 83 1016.2
20260905021105 58 356 3.0 7.0 0.00 0.00 0.00 84 1016.1
20260905020106 58 358 5.0 10.0 0.00 0.00 0.00 84 1016.2
20260905015105 58 356 3.0 7.0 0.00 0.00 0.00 84 1016.3
20260905014606 58 220 4.0 8.0 0.00 0.00 0.00 84 1016.4
20260905014105 58 230 5.0 9.0 0.00 0.00 0.00 84 1016.4
20260905013606 58 238 3.0 7.0 0.00 0.00 0.00 84 1016.4
20260905012605 58 108 3.0 8.0 0.00 0.00 0.00 84 1016.5
20260905011605 58 136 3.0 7.0 0.00 0.00 0.00 84 1016.5
20260905011105 58 116 5.0 8.0 0.00 0.00 0.00 84 1016.6
20260905010605 58 338 3.0 6.0 0.00 0.00 0.00 84 1016.7
20260905010105 58 88 3.0 6.0 0.00 0.00 0.00 85 1016.7
20260905005105 58 212 3.0 7.0 0.00 0.00 0.00 85 1016.7
20260905004606 58 272 6.0 13.0 0.00 0.00 0.00 85 1016.6
20260905004105 58 298 7.0 12.0 0.00 0.00 0.00 85 1016.7
20260905003605 58 239 5.0 10.0 0.00 0.00 0.00 85 1016.7
20260905003105 58 190 3.0 10.0 0.00 0.00 0.00 85 1016.7
20260905002605 58 337 5.0 9.0 0.00 0.00 0.00 85 1016.7
20260905002106 58 236 6.0 13.0 0.00 0.00 0.00 85 1016.8
20260905001605 58 266 5.0 9.0 0.00 0.00 0.00 85 1016.9
20260905000605 58 166 5.0 12.0 0.00 0.00 0.00 85 1017.1
20260905000107 58 91 3.0 5.0 0.00 0.00 0.00 85 1017.1
20260904235105 58 151 3.0 6.0 0.00 0.00 0.00 85 1017.2
20260904234605 58 312 3.0 5.0 0.00 0.00 0.00 85 1017.2
20260904234105 58 298 2.0 5.0 0.00 0.00 0.00 85 1017.2
20260904233605 58 304 3.0 7.0 0.00 0.00 0.00 85 1017.2
20260904233105 58 350 2.0 8.0 0.00 0.00 0.00 85 1017.4
20260904232105 58 277 3.0 7.0 0.00 0.00 0.00 85 1017.4
20260904231605 58 320 3.0 9.0 0.00 0.00 0.00 85 1017.5
20260904231105 58 347 5.0 12.0 0.00 0.00 0.00 85 1017.5
20260904230605 58 310 5.0 12.0 0.00 0.00 0.00 84 1017.6
20260904230106 58 345 3.0 12.0 0.00 0.00 0.00 85 1017.6
20260904225105 58 332 5.0 9.0 0.00 0.00 0.00 85 1017.6
20260904224605 58 281 3.0 10.0 0.00 0.00 0.00 85 1017.7
20260904224105 58 341 5.0 8.0 0.00 0.00 0.00 85 1017.7
20260904223105 59 100 5.0 7.0 0.00 0.00 0.00 84 1017.7
20260904222605 59 69 5.0 9.0 0.00 0.00 0.00 84 1017.7
20260904221605 59 87 5.0 8.0 0.00 0.00 0.00 85 1017.6
20260904221105 59 85 5.0 9.0 0.00 0.00 0.00 85 1017.6
20260904220605 59 220 5.0 13.0 0.00 0.00 0.00 85 1017.7
20260904220105 59 180 5.0 9.0 0.00 0.00 0.00 84 1017.7
20260904215605 59 117 5.0 12.0 0.00 0.00 0.00 85 1017.6
20260904215105 59 34 5.0 10.0 0.00 0.00 0.00 85 1017.7